TimePDT,TemperatureF,Dew PointF,Humidity,Sea Level PressureIn,VisibilityMPH,Wind Direction,Wind SpeedMPH,Gust SpeedMPH,PrecipitationIn,Events,Conditions,WindDirDegrees,DateUTC
12:53 AM,78.1,59.0,52,29.91,10.0,South,10.4,-,N/A,,Clear,180,2013-08-17 07:53:00
1:53 AM,73.9,57.9,57,29.91,10.0,Variable,3.5,-,N/A,,Clear,0,2013-08-17 08:53:00
2:53 AM,73.9,57.9,57,29.92,10.0,SW,8.1,-,N/A,,Clear,220,2013-08-17 09:53:00
3:53 AM,73.0,57.9,59,29.93,10.0,SW,11.5,-,N/A,,Clear,230,2013-08-17 10:53:00
4:53 AM,73.0,57.9,59,29.93,10.0,South,10.4,-,N/A,,Clear,180,2013-08-17 11:53:00
5:53 AM,71.1,57.9,63,29.95,10.0,South,6.9,-,N/A,,Clear,180,2013-08-17 12:53:00
6:53 AM,71.1,59.0,66,29.96,10.0,South,8.1,-,N/A,,Clear,190,2013-08-17 13:53:00
7:53 AM,75.0,59.0,57,29.96,10.0,SSW,4.6,-,N/A,,Clear,210,2013-08-17 14:53:00
8:53 AM,78.1,60.1,54,29.97,10.0,Calm,Calm,-,N/A,,Clear,0,2013-08-17 15:53:00
9:53 AM,82.0,59.0,45,29.97,10.0,SSW,8.1,-,N/A,,Clear,210,2013-08-17 16:53:00
10:53 AM,84.0,55.9,38,29.97,10.0,SW,10.4,-,N/A,,Clear,230,2013-08-17 17:53:00
11:53 AM,87.1,55.9,35,29.95,10.0,SSW,8.1,-,N/A,,Clear,210,2013-08-17 18:53:00
12:53 PM,88.0,55.9,34,29.93,10.0,Variable,3.5,-,N/A,,Clear,0,2013-08-17 19:53:00
1:53 PM,90.0,53.1,28,29.91,10.0,South,8.1,-,N/A,,Clear,190,2013-08-17 20:53:00
2:53 PM,91.0,54.0,28,29.89,10.0,SW,10.4,-,N/A,,Clear,230,2013-08-17 21:53:00
3:53 PM,91.0,53.1,27,29.88,10.0,WSW,9.2,-,N/A,,Clear,240,2013-08-17 22:53:00
4:53 PM,90.0,52.0,27,29.86,10.0,Variable,5.8,-,N/A,,Scattered Clouds,0,2013-08-17 23:53:00
5:53 PM,91.0,55.9,30,29.86,10.0,WNW,10.4,-,N/A,,Clear,300,2013-08-18 00:53:00
6:53 PM,90.0,46.0,22,29.86,10.0,West,10.4,-,N/A,,Clear,260,2013-08-18 01:53:00
7:53 PM,84.0,51.1,32,29.87,10.0,WSW,8.1,-,N/A,,Clear,250,2013-08-18 02:53:00
8:53 PM,77.0,54.0,45,29.90,10.0,NNW,8.1,-,N/A,,Clear,330,2013-08-18 03:53:00
9:53 PM,73.9,52.0,46,29.93,10.0,NW,9.2,-,N/A,,Clear,320,2013-08-18 04:53:00
10:53 PM,75.0,52.0,44,29.93,10.0,NNW,15.0,-,N/A,,Clear,330,2013-08-18 05:53:00
11:53 PM,73.9,52.0,46,29.96,10.0,Calm,Calm,-,N/A,,Clear,0,2013-08-18 06:53:00